"Pseudo-MPEC" for A11aDOM

Created 2024 Sep 11 2:22:02 UT using Find_Orb

Click here for an explanation of pseudo-MPECs

 
 Astrometry: 
     A11aDOM* C2024 09 04.02930523 28 25.322-03 42 23.51   ~948q 16.13cVNEOCPM22
     A11aDOM  C2024 09 04.03248423 29 26.450-03 38 44.45   ~948q 16.43cVNEOCPM22
     A11aDOM  C2024 09 04.04463023 33 20.503-03 24 34.81   ~948q 16.35cVNEOCPM22

Station data:
(M22) ATLAS South Africa, Sutherland  (S32.380156 E20.810590)  South Africa.
   Observers L. Denneau, R. Siverd, J. Tonry, H. Weiland. Measurers L.
   Denneau, N. Erasmus, A. Fitzsimmons, A. Lawrence, J. Robinson, R. Siverd,
   J. Tonry, H. Weiland. 0.5-m reflector + CCD.

Orbital elements:  A11aDOM
   Perigee 2024 Sep 4.20387 +/- 21.5 TT =  4:53:34 (JD 2460557.70387)
Epoch 2024 Sep  4.0 TT = JDT 2460557.5                           AutoNEOCP
q465876.963 +/- 7.12e+6             (J2000 equator)
H   28.06 G 0.15                    Peri.  357.65215 +/- 27
                                    Node     9.68137 +/- 0.019
e  84.7138407 +/- 0.253             Incl.   13.43842 +/- 0.6
From 3 observations 2024 Sept. 4 (22.1 min); mean residual 1".02
Residuals in arcseconds: 
240904 M22  1.4-  .50+    240904 M22  1.8+  .63-    240904 M22  .38-  .13+    

Ephemerides (geocentric):
Date (UTC) HH   RA             Dec           delta  r     elong  mag " sig PA
---- --------  ------------   ------------  ------ ------ -----  --- --------
2024 09 11 02  06 09 57.608   +13 20 32.28  .03378 0.9992  76.3 24.4  44d  91
2024 09 11 03  06 10 05.689   +13 20 35.99  .03399 0.9992  76.3 24.4  44d  91
2024 09 11 04  06 10 13.678   +13 20 39.64  .03419 0.9991  76.3 24.4  44d  91
2024 09 11 05  06 10 21.579   +13 20 43.25  .03439 0.9991  76.3 24.5  44d  91
2024 09 11 06  06 10 29.391   +13 20 46.80  .03459 0.9990  76.3 24.5  44d  91
2024 09 11 07  06 10 37.118   +13 20 50.30  .03479 0.9990  76.3 24.5  44d  91
2024 09 11 08  06 10 44.759   +13 20 53.76  .03500 0.9989  76.3 24.5  44d  91
2024 09 11 09  06 10 52.317   +13 20 57.17  .03520 0.9989  76.3 24.5  44d  91
2024 09 11 10  06 10 59.794   +13 21 00.52  .03540 0.9988  76.3 24.5  44d  91
2024 09 11 11  06 11 07.190   +13 21 03.84  .03560 0.9988  76.3 24.5  44d  91
2024 09 11 12  06 11 14.507   +13 21 07.11  .03580 0.9987  76.3 24.5  44d  91
2024 09 11 13  06 11 21.746   +13 21 10.33  .03601 0.9987  76.4 24.5  44d  91
2024 09 11 14  06 11 28.910   +13 21 13.51  .03621 0.9987  76.4 24.6  44d  91
2024 09 11 15  06 11 35.998   +13 21 16.66  .03641 0.9986  76.4 24.6  44d  91
2024 09 11 16  06 11 43.012   +13 21 19.75  .03661 0.9986  76.4 24.6  44d  91
2024 09 11 17  06 11 49.954   +13 21 22.81  .03681 0.9985  76.4 24.6  44d  91
2024 09 11 18  06 11 56.825   +13 21 25.83  .03701 0.9985  76.4 24.6  44d  91
2024 09 11 19  06 12 03.625   +13 21 28.81  .03722 0.9984  76.4 24.6  44d  91
2024 09 11 20  06 12 10.357   +13 21 31.76  .03742 0.9984  76.4 24.6  44d  91
2024 09 11 21  06 12 17.021   +13 21 34.66  .03762 0.9984  76.5 24.6  44d  91
2024 09 11 22  06 12 23.618   +13 21 37.53  .03782 0.9983  76.5 24.6  44d  91
2024 09 11 23  06 12 30.150   +13 21 40.37  .03802 0.9983  76.5 24.7  44d  91
2024 09 12 00  06 12 36.617   +13 21 43.17  .03823 0.9982  76.5 24.7  44d  91
2024 09 12 01  06 12 43.021   +13 21 45.93  .03843 0.9982  76.5 24.7  44d  91
2024 09 12 02  06 12 49.362   +13 21 48.66  .03863 0.9981  76.5 24.7  44d  91
2024 09 12 03  06 12 55.642   +13 21 51.36  .03883 0.9981  76.5 24.7  44d  91
2024 09 12 04  06 13 01.862   +13 21 54.03  .03903 0.9981  76.5 24.7  44d  91
2024 09 12 05  06 13 08.022   +13 21 56.67  .03923 0.9980  76.6 24.7  44d  91
2024 09 12 06  06 13 14.123   +13 21 59.27  .03944 0.9980  76.6 24.7  44d  91
2024 09 12 07  06 13 20.167   +13 22 01.84  .03964 0.9979  76.6 24.7  44d  91
2024 09 12 08  06 13 26.154   +13 22 04.39  .03984 0.9979  76.6 24.7  44d  91
2024 09 12 09  06 13 32.085   +13 22 06.90  .04004 0.9979  76.6 24.8  44d  91
2024 09 12 10  06 13 37.961   +13 22 09.39  .04024 0.9978  76.6 24.8  44d  91
2024 09 12 11  06 13 43.783   +13 22 11.85  .04045 0.9978  76.7 24.8  44d  91
2024 09 12 12  06 13 49.552   +13 22 14.28  .04065 0.9977  76.7 24.8  44d  91
2024 09 12 13  06 13 55.268   +13 22 16.68  .04085 0.9977  76.7 24.8  44d  91
2024 09 12 14  06 14 00.933   +13 22 19.06  .04105 0.9977  76.7 24.8  44d  91
2024 09 12 15  06 14 06.547   +13 22 21.41  .04125 0.9976  76.7 24.8  44d  91
2024 09 12 16  06 14 12.110   +13 22 23.74  .04145 0.9976  76.7 24.8  44d  91
2024 09 12 17  06 14 17.625   +13 22 26.04  .04166 0.9976  76.8 24.8  44d  91
2024 09 12 18  06 14 23.090   +13 22 28.31  .04186 0.9975  76.8 24.8  44d  91
2024 09 12 19  06 14 28.508   +13 22 30.56  .04206 0.9975  76.8 24.8  44d  91
2024 09 12 20  06 14 33.878   +13 22 32.79  .04226 0.9974  76.8 24.9  44d  91
2024 09 12 21  06 14 39.202   +13 22 34.99  .04246 0.9974  76.8 24.9  44d  91
2024 09 12 22  06 14 44.481   +13 22 37.17  .04266 0.9974  76.8 24.9  44d  91
2024 09 12 23  06 14 49.714   +13 22 39.33  .04287 0.9973  76.9 24.9  44d  91
2024 09 13 00  06 14 54.902   +13 22 41.47  .04307 0.9973  76.9 24.9  44d  91
2024 09 13 01  06 15 00.047   +13 22 43.58  .04327 0.9973  76.9 24.9  44d  91